Location: Newark
(34.9500°N, 139.9667°E)
Time: 00:06:24
(UTC+00:00)

Vanguard 2 Rocket - Pass Details

Date: 08 December 2019
Orbit: 554 x 3326 km, 32.9° (Epoch: 24 January)

Event Time Altitude Azimuth Distance (km) Brightness Sun altitude
Rises 13:59:47 0° 277° (W) 3,871 - -75.9°
Reaches altitude 10° 14:03:10 10° 270° (W) 2,547 - -76.3°
Maximum altitude 14:08:15 36° 205° (SSW) 1,064 - -76.7°
Drops below altitude 10° 14:12:01 10° 137° (SE) 1,877 - -77.0°
Sets 14:14:10 0° 128° (SE) 2,716 - -77.2°
